DW8522 Weather Reports


time (UTC)temp
C
wind
direction
speed
KPH
gust
KPH
rain 1hr
cm
rain 24hr
cm
rain mn
cm
humidity
%
barometer
mb
20260503010037 19 121 1.6 4.8 0.00 0.00 0.00 62 1033.7
20260503004531 18 127 1.6 6.4 0.00 0.00 0.00 63 1033.9
20260503003030 18 191 1.6 8.0 0.00 0.00 0.00 61 1034.1
20260503001527 18 81 1.6 4.8 0.00 0.00 0.00 62 1034.3
20260503000025 18 85 1.6 6.4 0.00 0.00 0.00 62 1034.6
20260502234534 18 119 0.0 4.8 0.00 0.00 0.00 64 1034.8
20260502233024 18 162 1.6 6.4 0.00 0.00 0.00 63 1034.9
20260502231524 18 153 0.0 3.2 0.00 0.00 0.00 64 1035.0
20260502230019 18 139 0.0 6.4 0.00 0.00 0.00 64 1035.1
20260502224517 17 170 0.0 3.2 0.00 0.00 0.00 66 1035.1
20260502223014 17 143 0.0 3.2 0.00 0.00 0.00 68 1035.2
20260502221510 16 143 0.0 3.2 0.00 0.00 0.00 71 1035.2
20260502220011 16 155 0.0 3.2 0.00 0.00 0.00 74 1035.2
20260502214508 15 139 0.0 3.2 0.00 0.00 0.00 76 1035.3
20260502213109 14 145 0.0 3.2 0.00 0.00 0.00 78 1035.3
20260502211555 13 145 0.0 4.8 0.00 0.00 0.00 81 1035.4
20260502210050 12 146 1.6 6.4 0.00 0.00 0.00 83 1035.4
20260502204548 12 149 0.0 6.4 0.00 0.00 0.00 85 1035.5
20260502203045 11 142 0.0 4.8 0.00 0.00 0.00 87 1035.4
20260502201546 10 142 0.0 3.2 0.00 0.00 0.00 89 1035.4
20260502200039 10 151 1.6 6.4 0.00 0.00 0.00 90 1035.2
20260502194535 9 137 1.6 6.4 0.00 0.00 0.00 91 1035.0
20260502193034 8 141 0.0 4.8 0.00 0.00 0.00 91 1035.0
20260502191531 9 147 1.6 4.8 0.00 0.00 0.00 91 1034.8
20260502190032 9 146 0.0 6.4 0.00 0.00 0.00 91 1034.7
20260502184527 9 143 1.6 4.8 0.00 0.00 0.00 90 1034.7
20260502183025 9 147 1.6 4.8 0.00 0.00 0.00 90 1034.7
20260502181525 9 139 0.0 3.2 0.00 0.00 0.00 90 1034.6
20260502163016 10 152 0.0 6.4 0.00 0.00 0.00 87 1034.3
20260502161514 10 146 0.0 6.4 0.00 0.00 0.00 87 1034.4
20260502151509 10 152 3.2 6.4 0.00 0.00 0.00 88 1034.5
20260502140103 10 146 1.6 6.4 0.00 0.00 0.00 89 1034.6
20260502123045 9 149 1.6 6.4 0.00 0.00 0.00 90 1034.5
20260502121542 9 150 0.0 3.2 0.00 0.00 0.00 90 1034.4
20260502114531 10 146 3.2 8.0 0.00 0.00 0.00 89 1034.4
20260502113030 10 151 3.2 8.0 0.00 0.00 0.00 89 1034.4
20260502111536 10 149 3.2 6.4 0.00 0.00 0.00 89 1034.3
20260502110034 10 146 1.6 6.4 0.00 0.00 0.00 89 1034.3
20260502104529 10 155 1.6 9.7 0.00 0.00 0.00 89 1034.4
20260502103027 10 146 1.6 4.8 0.00 0.00 0.00 89 1034.3
20260502101527 10 152 3.2 8.0 0.00 0.00 0.00 89 1034.1
20260502091524 11 146 0.0 4.8 0.00 0.00 0.00 89 1033.8
20260502071520 12 111 0.0 0.0 0.00 0.00 0.00 85 1033.1
20260502070023 12 111 0.0 0.0 0.00 0.00 0.00 84 1033.1
20260502064518 12 112 0.0 1.6 0.00 0.00 0.00 82 1033.0
20260502063026 13 111 0.0 0.0 0.00 0.00 0.00 80 1032.9
20260502061519 13 99 0.0 0.0 0.00 0.00 0.00 78 1032.7
20260502060021 14 99 0.0 0.0 0.00 0.00 0.00 76 1032.5
20260502054524 15 98 0.0 1.6 0.00 0.00 0.00 74 1032.4
20260502053015 16 99 0.0 1.6 0.00 0.00 0.00 70 1032.3
20260502051514 16 98 0.0 1.6 0.00 0.00 0.00 67 1032.3
20260502050013 18 111 1.6 3.2 0.00 0.00 0.00 63 1032.3
20260502044514 18 95 0.0 3.2 0.00 0.00 0.00 62 1032.4
20260502043010 18 128 0.0 3.2 0.00 0.00 0.00 61 1032.4
20260502041507 19 11 0.0 3.2 0.00 0.00 0.00 61 1032.4
20260502040008 19 119 1.6 4.8 0.00 0.00 0.00 60 1032.4
20260502034504 19 187 1.6 3.2 0.00 0.00 0.00 60 1032.4
20260502033002 19 70 1.6 4.8 0.00 0.00 0.00 60 1032.5
20260502031600 19 122 1.6 6.4 0.00 0.00 0.00 60 1032.5
20260502030101 19 99 1.6 4.8 0.00 0.00 0.00 59 1032.7
20260502024557 19 155 1.6 6.4 0.00 0.00 0.00 61 1032.8
20260502023156 19 100 0.0 9.7 0.00 0.00 0.00 61 1032.8
20260502021553 19 109 1.6 4.8 0.00 0.00 0.00 61 1033.0
20260502020052 19 108 1.6 6.4 0.00 0.00 0.00 59 1033.2
20260502014550 19 101 0.0 6.4 0.00 0.00 0.00 61 1033.4
20260502013049 19 94 1.6 6.4 0.00 0.00 0.00 61 1033.5
20260502011543 19 91 3.2 8.0 0.00 0.00 0.00 60 1033.7